Wetterdaten: Sonntag, 20.06.2010
Datum Zeit Temp. I. Temp. A. Boden 5 cm Feuchte A. Sonne Luftdruck Regen Wind
20.06.2010 00:02 23,2 C 10,9 C 12,5 C 93 % 0 % 1002 hPa 0,0 l/m 6,7 km/h (2 Bft)
20.06.2010 00:05 23,2 C 10,9 C 12,3 C 93 % 0 % 1002 hPa 0,0 l/m 8,1 km/h (2 Bft)
20.06.2010 00:08 23,2 C 10,8 C 12,4 C 93 % 0 % 1002 hPa 0,0 l/m 8,1 km/h (2 Bft)
20.06.2010 00:11 23,2 C 10,8 C 12,4 C 93 % 0 % 1002 hPa 0,3 l/m 6,1 km/h (2 Bft)
20.06.2010 00:14 23,2 C 10,8 C 12,5 C 93 % 0 % 1002 hPa 0,0 l/m 5,9 km/h (2 Bft)
20.06.2010 00:17 23,2 C 10,8 C 12,6 C 93 % 0 % 1002 hPa 0,0 l/m 4,5 km/h (1 Bft)
20.06.2010 00:20 23,2 C 10,8 C 12,5 C 93 % 0 % 1001 hPa 0,0 l/m 3,8 km/h (1 Bft)
20.06.2010 00:23 23,2 C 10,8 C 12,3 C 93 % 0 % 1001 hPa 0,0 l/m 5,0 km/h (1 Bft)
20.06.2010 00:26 23,2 C 10,7 C 12,5 C 93 % 0 % 1001 hPa 0,0 l/m 6,4 km/h (2 Bft)
20.06.2010 00:29 23,2 C 10,7 C 12,3 C 93 % 0 % 1001 hPa 0,0 l/m 8,1 km/h (2 Bft)
20.06.2010 00:32 23,2 C 10,7 C 12,3 C 93 % 0 % 1001 hPa 0,0 l/m 6,5 km/h (2 Bft)
20.06.2010 00:35 23,2 C 10,6 C 12,2 C 94 % 0 % 1002 hPa 0,0 l/m 8,4 km/h (2 Bft)
20.06.2010 00:38 23,2 C 10,6 C 12,2 C 94 % 0 % 1001 hPa 0,0 l/m 7,1 km/h (2 Bft)
20.06.2010 00:41 23,2 C 10,6 C 12,2 C 94 % 0 % 1001 hPa 0,0 l/m 10,3 km/h (2 Bft)
20.06.2010 00:44 23,2 C 10,6 C 12,2 C 94 % 0 % 1001 hPa 0,0 l/m 10,1 km/h (2 Bft)
20.06.2010 00:47 23,2 C 10,6 C 12,2 C 94 % 0 % 1001 hPa 0,0 l/m 11,8 km/h (2 Bft)
20.06.2010 00:50 23,2 C 10,6 C 12,2 C 94 % 0 % 1001 hPa 0,0 l/m 13,8 km/h (3 Bft)
20.06.2010 00:56 23,2 C 10,5 C 12,2 C 94 % 0 % 1001 hPa 0,3 l/m 8,5 km/h (2 Bft)
20.06.2010 00:59 23,2 C 10,5 C 12,1 C 95 % 0 % 1001 hPa 0,0 l/m 8,1 km/h (2 Bft)
20.06.2010 01:02 23,2 C 10,5 C 12,2 C 95 % 0 % 1001 hPa 0,0 l/m 7,6 km/h (2 Bft)
20.06.2010 01:05 23,2 C 10,5 C 12,0 C 95 % 0 % 1001 hPa 0,0 l/m 6,9 km/h (2 Bft)
20.06.2010 01:08 23,2 C 10,4 C 12,0 C 94 % 0 % 1001 hPa 0,0 l/m 8,7 km/h (2 Bft)
20.06.2010 01:11 23,2 C 10,4 C 12,1 C 94 % 0 % 1001 hPa 0,0 l/m 7,6 km/h (2 Bft)
20.06.2010 01:14 23,2 C 10,4 C 12,1 C 94 % 0 % 1001 hPa 0,0 l/m 8,7 km/h (2 Bft)
20.06.2010 01:17 23,2 C 10,4 C 12,1 C 94 % 0 % 1001 hPa 0,0 l/m 8,5 km/h (2 Bft)
20.06.2010 01:20 23,2 C 10,4 C 12,1 C 95 % 0 % 1001 hPa 0,0 l/m 10,1 km/h (2 Bft)
20.06.2010 01:23 23,2 C 10,4 C 12,0 C 95 % 0 % 1001 hPa 0,0 l/m 9,0 km/h (2 Bft)
20.06.2010 01:26 23,2 C 10,4 C 12,0 C 95 % 0 % 1001 hPa 0,0 l/m 8,1 km/h (2 Bft)
20.06.2010 01:29 23,2 C 10,4 C 11,9 C 95 % 0 % 1001 hPa 0,0 l/m 6,2 km/h (2 Bft)
20.06.2010 01:32 23,2 C 10,4 C 12,0 C 95 % 0 % 1001 hPa 0,3 l/m 2,0 km/h (1 Bft)
20.06.2010 01:35 23,2 C 10,4 C 11,9 C 94 % 0 % 1001 hPa 0,0 l/m 8,5 km/h (2 Bft)
20.06.2010 01:38 23,2 C 10,4 C 11,9 C 94 % 0 % 1001 hPa 0,0 l/m 6,3 km/h (2 Bft)
20.06.2010 01:41 23,2 C 10,3 C 11,8 C 94 % 0 % 1001 hPa 0,0 l/m 8,4 km/h (2 Bft)
20.06.2010 01:44 23,1 C 10,3 C 11,8 C 94 % 0 % 1001 hPa 0,0 l/m 8,1 km/h (2 Bft)
20.06.2010 01:47 23,2 C 10,3 C 11,8 C 95 % 0 % 1001 hPa 0,0 l/m 5,4 km/h (1 Bft)
20.06.2010 01:50 23,2 C 10,3 C 11,7 C 95 % 0 % 1001 hPa 0,0 l/m 12,0 km/h (2 Bft)
20.06.2010 01:56 23,1 C 10,3 C 11,7 C 95 % 0 % 1001 hPa 0,0 l/m 1,4 km/h (1 Bft)
20.06.2010 01:59 23,1 C 10,3 C 11,7 C 95 % 0 % 1001 hPa 0,0 l/m 10,8 km/h (2 Bft)
20.06.2010 02:02 23,2 C 10,3 C 11,9 C 95 % 0 % 1001 hPa 0,0 l/m 12,1 km/h (2 Bft)
20.06.2010 02:05 23,1 C 10,3 C 11,6 C 95 % 0 % 1001 hPa 0,3 l/m 12,6 km/h (3 Bft)
20.06.2010 02:08 23,1 C 10,2 C 11,6 C 95 % 0 % 1001 hPa 0,0 l/m 12,7 km/h (3 Bft)
20.06.2010 02:11 23,1 C 10,3 C 11,6 C 95 % 0 % 1001 hPa 0,0 l/m 9,0 km/h (2 Bft)
20.06.2010 02:14 23,1 C 10,3 C 11,8 C 95 % 0 % 1001 hPa 0,0 l/m 9,0 km/h (2 Bft)
20.06.2010 02:17 23,1 C 10,2 C 11,8 C 95 % 0 % 1001 hPa 0,0 l/m 7,9 km/h (2 Bft)
20.06.2010 02:20 23,1 C 10,2 C 11,6 C 95 % 0 % 1001 hPa 0,0 l/m 9,8 km/h (2 Bft)
20.06.2010 02:23 23,1 C 10,2 C 11,6 C 95 % 0 % 1001 hPa 0,0 l/m 8,4 km/h (2 Bft)
20.06.2010 02:26 23,1 C 10,2 C 11,6 C 95 % 0 % 1001 hPa 0,0 l/m 15,5 km/h (3 Bft)
20.06.2010 02:29 23,1 C 10,2 C 11,4 C 95 % 0 % 1001 hPa 0,0 l/m 11,4 km/h (2 Bft)
20.06.2010 02:32 23,1 C 10,2 C 11,5 C 95 % 0 % 1001 hPa 0,0 l/m 10,8 km/h (2 Bft)
20.06.2010 02:35 23,1 C 10,1 C 11,5 C 95 % 0 % 1001 hPa 0,0 l/m 11,7 km/h (2 Bft)
20.06.2010 02:38 23,1 C 10,1 C 11,5 C 95 % 0 % 1001 hPa 0,0 l/m 11,2 km/h (2 Bft)
20.06.2010 02:41 23,1 C 10,1 C 11,6 C 95 % 0 % 1001 hPa 0,3 l/m 11,7 km/h (2 Bft)
20.06.2010 02:44 23,1 C 10,1 C 11,6 C 95 % 0 % 1001 hPa 0,0 l/m 9,7 km/h (2 Bft)
20.06.2010 02:47 23,1 C 10,0 C 11,4 C 95 % 0 % 1001 hPa 0,0 l/m 8,3 km/h (2 Bft)
20.06.2010 02:50 23,1 C 10,0 C 11,6 C 95 % 0 % 1001 hPa 0,0 l/m 8,9 km/h (2 Bft)
20.06.2010 02:56 23,1 C 10,0 C 11,6 C 95 % 0 % 1001 hPa 0,0 l/m 8,9 km/h (2 Bft)
20.06.2010 02:59 23,1 C 10,0 C 11,5 C 95 % 0 % 1001 hPa 0,0 l/m 11,7 km/h (2 Bft)
20.06.2010 03:02 23,1 C 10,0 C 11,6 C 95 % 0 % 1001 hPa 0,0 l/m 8,5 km/h (2 Bft)
20.06.2010 03:05 23,1 C 10,0 C 11,4 C 95 % 0 % 1001 hPa 0,0 l/m 8,7 km/h (2 Bft)
20.06.2010 03:08 23,0 C 10,0 C 11,5 C 95 % 0 % 1001 hPa 0,0 l/m 7,6 km/h (2 Bft)
20.06.2010 03:11 23,1 C 10,0 C 11,6 C 95 % 0 % 1001 hPa 0,0 l/m 7,0 km/h (2 Bft)
20.06.2010 03:14 23,0 C 9,9 C 11,4 C 95 % 0 % 1001 hPa 0,0 l/m 5,7 km/h (1 Bft)
20.06.2010 03:17 23,1 C 9,9 C 11,5 C 95 % 0 % 1001 hPa 0,0 l/m 5,8 km/h (2 Bft)
20.06.2010 03:20 23,1 C 9,9 C 11,5 C 95 % 0 % 1001 hPa 0,0 l/m 5,2 km/h (1 Bft)
20.06.2010 03:23 23,1 C 9,9 C 11,5 C 95 % 0 % 1001 hPa 0,3 l/m 5,6 km/h (1 Bft)
20.06.2010 03:26 23,1 C 9,8 C 11,5 C 95 % 0 % 1001 hPa 0,0 l/m 7,0 km/h (2 Bft)
20.06.2010 03:29 23,1 C 9,8 C 11,4 C 95 % 0 % 1001 hPa 0,0 l/m 7,6 km/h (2 Bft)
20.06.2010 03:32 23,1 C 9,8 C 11,1 C 95 % 0 % 1001 hPa 0,0 l/m 10,3 km/h (2 Bft)
20.06.2010 03:35 23,0 C 9,8 C 11,4 C 95 % 0 % 1001 hPa 0,0 l/m 6,3 km/h (2 Bft)
20.06.2010 03:38 23,0 C 9,8 C 11,3 C 95 % 0 % 1001 hPa 0,0 l/m 6,8 km/h (2 Bft)
20.06.2010 03:41 23,0 C 9,8 C 11,4 C 95 % 0 % 1001 hPa 0,0 l/m 6,7 km/h (2 Bft)
20.06.2010 03:44 23,0 C 9,7 C 11,4 C 95 % 0 % 1001 hPa 0,0 l/m 7,9 km/h (2 Bft)
20.06.2010 03:47 23,0 C 9,7 C 11,4 C 95 % 0 % 1001 hPa 0,0 l/m 8,3 km/h (2 Bft)
20.06.2010 03:50 23,0 C 9,7 C 11,3 C 96 % 0 % 1001 hPa 0,0 l/m 9,2 km/h (2 Bft)
20.06.2010 03:56 23,0 C 9,7 C 11,4 C 96 % 0 % 1001 hPa 0,0 l/m 10,6 km/h (2 Bft)
20.06.2010 03:59 23,0 C 9,7 C 11,4 C 96 % 0 % 1001 hPa 0,0 l/m 10,0 km/h (2 Bft)
20.06.2010 04:02 23,0 C 9,7 C 11,4 C 96 % 0 % 1001 hPa 0,0 l/m 8,9 km/h (2 Bft)
20.06.2010 04:05 23,0 C 9,7 C 11,5 C 96 % 0 % 1001 hPa 0,0 l/m 7,1 km/h (2 Bft)
20.06.2010 04:08 23,0 C 9,7 C 11,4 C 96 % 0 % 1001 hPa 0,0 l/m 7,9 km/h (2 Bft)
20.06.2010 04:11 23,0 C 9,7 C 11,4 C 96 % 0 % 1001 hPa 0,3 l/m 5,8 km/h (2 Bft)
20.06.2010 04:14 23,0 C 9,7 C 11,5 C 96 % 0 % 1001 hPa 0,0 l/m 3,0 km/h (1 Bft)
20.06.2010 04:17 23,0 C 9,7 C 11,4 C 96 % 0 % 1001 hPa 0,0 l/m 6,1 km/h (2 Bft)
20.06.2010 04:20 23,0 C 9,7 C 11,5 C 96 % 0 % 1001 hPa 0,0 l/m 1,1 km/h (1 Bft)
20.06.2010 04:23 23,0 C 9,7 C 11,5 C 96 % 0 % 1001 hPa 0,0 l/m 6,8 km/h (2 Bft)
20.06.2010 04:26 23,0 C 9,7 C 11,5 C 96 % 0 % 1001 hPa 0,0 l/m 6,8 km/h (2 Bft)
20.06.2010 04:29 23,0 C 9,7 C 11,5 C 96 % 0 % 1001 hPa 0,0 l/m 8,6 km/h (2 Bft)
20.06.2010 04:32 23,0 C 9,6 C 11,4 C 96 % 0 % 1001 hPa 0,0 l/m 9,9 km/h (2 Bft)
20.06.2010 04:35 23,0 C 9,6 C 11,3 C 96 % 0 % 1001 hPa 0,0 l/m 8,8 km/h (2 Bft)
20.06.2010 04:38 23,0 C 9,6 C 11,2 C 96 % 0 % 1001 hPa 0,0 l/m 10,0 km/h (2 Bft)
20.06.2010 04:41 23,0 C 9,6 C 11,4 C 96 % 0 % 1001 hPa 0,0 l/m 10,2 km/h (2 Bft)
20.06.2010 04:44 23,0 C 9,6 C 11,2 C 96 % 0 % 1001 hPa 0,0 l/m 11,8 km/h (2 Bft)
20.06.2010 04:47 23,0 C 9,6 C 11,2 C 96 % 0 % 1001 hPa 0,0 l/m 12,7 km/h (3 Bft)
20.06.2010 04:50 23,0 C 9,6 C 11,2 C 96 % 0 % 1001 hPa 0,0 l/m 7,8 km/h (2 Bft)
20.06.2010 04:54 23,0 C 9,6 C 11,2 C 96 % 0 % 1001 hPa 0,0 l/m 8,1 km/h (2 Bft)
20.06.2010 04:57 23,0 C 9,6 C 11,2 C 96 % 0 % 1001 hPa 0,0 l/m 7,8 km/h (2 Bft)
20.06.2010 05:00 23,0 C 9,6 C 11,2 C 96 % 0 % 1001 hPa 0,0 l/m 9,6 km/h (2 Bft)
20.06.2010 05:03 23,0 C 9,6 C 11,2 C 96 % 0 % 1001 hPa 0,3 l/m 9,6 km/h (2 Bft)
20.06.2010 05:06 23,0 C 9,5 C 11,3 C 95 % 0 % 1001 hPa 0,0 l/m 8,0 km/h (2 Bft)
20.06.2010 05:09 23,0 C 9,6 C 11,1 C 96 % 0 % 1001 hPa 0,0 l/m 6,4 km/h (2 Bft)
20.06.2010 05:12 23,0 C 9,5 C 11,2 C 95 % 0 % 1001 hPa 0,0 l/m 7,6 km/h (2 Bft)
20.06.2010 05:15 23,0 C 9,5 C 11,3 C 95 % 0 % 1002 hPa 0,0 l/m 12,3 km/h (3 Bft)
20.06.2010 05:18 23,0 C 9,5 C 11,3 C 95 % 0 % 1002 hPa 0,0 l/m 12,6 km/h (3 Bft)
20.06.2010 05:21 23,0 C 9,5 C 11,3 C 95 % 0 % 1002 hPa 0,0 l/m 19,5 km/h (3 Bft)
20.06.2010 05:24 23,0 C 9,5 C 11,2 C 95 % 0 % 1002 hPa 0,0 l/m 18,3 km/h (3 Bft)
20.06.2010 05:27 23,0 C 9,5 C 11,3 C 95 % 0 % 1002 hPa 0,0 l/m 7,8 km/h (2 Bft)
20.06.2010 05:30 23,0 C 9,6 C 11,2 C 96 % 0 % 1002 hPa 0,0 l/m 11,1 km/h (2 Bft)
20.06.2010 05:33 23,0 C 9,6 C 11,3 C 96 % 0 % 1002 hPa 0,0 l/m 10,3 km/h (2 Bft)
20.06.2010 05:36 23,0 C 9,6 C 11,3 C 96 % 0 % 1002 hPa 0,0 l/m 8,9 km/h (2 Bft)
20.06.2010 05:39 23,0 C 9,6 C 11,2 C 96 % 0 % 1001 hPa 0,0 l/m 11,5 km/h (2 Bft)
20.06.2010 05:42 23,0 C 9,6 C 11,6 C 96 % 0 % 1001 hPa 0,0 l/m 6,1 km/h (2 Bft)
20.06.2010 05:45 23,0 C 9,6 C 11,4 C 96 % 0 % 1001 hPa 0,0 l/m 6,7 km/h (2 Bft)
20.06.2010 05:48 23,0 C 9,6 C 11,4 C 96 % 0 % 1002 hPa 0,0 l/m 7,9 km/h (2 Bft)
20.06.2010 05:51 23,0 C 9,6 C 11,4 C 96 % 0 % 1002 hPa 0,0 l/m 0,8 km/h (0 Bft)
20.06.2010 05:54 23,0 C 9,6 C 11,4 C 96 % 0 % 1002 hPa 0,0 l/m 5,6 km/h (1 Bft)
20.06.2010 05:57 22,9 C 9,6 C 11,4 C 96 % 0 % 1002 hPa 0,3 l/m 0,9 km/h (0 Bft)
20.06.2010 06:00 23,0 C 9,6 C 11,5 C 96 % 0 % 1002 hPa 0,0 l/m 1,1 km/h (1 Bft)
20.06.2010 06:03 22,9 C 9,6 C 11,6 C 96 % 0 % 1002 hPa 0,0 l/m 1,1 km/h (1 Bft)
20.06.2010 06:06 22,9 C 9,6 C 11,6 C 96 % 0 % 1002 hPa 0,0 l/m 0,1 km/h (0 Bft)
20.06.2010 06:09 23,0 C 9,7 C 11,7 C 96 % 0 % 1002 hPa 0,0 l/m 0,6 km/h (0 Bft)
20.06.2010 06:12 23,0 C 9,7 C 11,7 C 96 % 0 % 1002 hPa 0,0 l/m 6,8 km/h (2 Bft)
20.06.2010 06:15 23,0 C 9,7 C 11,6 C 96 % 0 % 1002 hPa 0,0 l/m 0,6 km/h (0 Bft)
20.06.2010 06:18 23,0 C 9,7 C 11,7 C 96 % 0 % 1002 hPa 0,0 l/m 6,7 km/h (2 Bft)
20.06.2010 06:21 23,0 C 9,7 C 11,7 C 96 % 0 % 1002 hPa 0,0 l/m 0,4 km/h (0 Bft)
20.06.2010 06:24 23,0 C 9,7 C 11,8 C 96 % 0 % 1002 hPa 0,0 l/m 0,7 km/h (0 Bft)
20.06.2010 06:27 22,9 C 9,8 C 11,8 C 96 % 0 % 1002 hPa 0,3 l/m 3,6 km/h (1 Bft)
20.06.2010 06:30 22,9 C 9,8 C 11,9 C 96 % 0 % 1002 hPa 0,0 l/m 0,9 km/h (0 Bft)
20.06.2010 06:33 22,9 C 9,8 C 11,8 C 96 % 0 % 1002 hPa 0,0 l/m 3,7 km/h (1 Bft)
20.06.2010 06:36 22,9 C 9,8 C 11,8 C 96 % 0 % 1002 hPa 0,0 l/m 3,7 km/h (1 Bft)
20.06.2010 06:39 22,9 C 9,8 C 11,8 C 96 % 0 % 1002 hPa 0,0 l/m 4,4 km/h (1 Bft)
20.06.2010 06:42 22,9 C 9,8 C 11,7 C 96 % 0 % 1002 hPa 0,0 l/m 6,1 km/h (2 Bft)
20.06.2010 06:45 23,0 C 9,8 C 11,6 C 96 % 0 % 1002 hPa 0,0 l/m 7,6 km/h (2 Bft)
20.06.2010 06:48 22,9 C 9,8 C 11,6 C 96 % 0 % 1002 hPa 0,0 l/m 6,2 km/h (2 Bft)
20.06.2010 06:51 22,9 C 9,8 C 11,7 C 96 % 0 % 1002 hPa 0,0 l/m 5,0 km/h (1 Bft)
20.06.2010 06:54 22,9 C 9,8 C 11,8 C 96 % 0 % 1002 hPa 0,3 l/m 0,7 km/h (0 Bft)
20.06.2010 06:57 22,9 C 9,8 C 11,7 C 96 % 0 % 1002 hPa 0,0 l/m 1,3 km/h (1 Bft)
20.06.2010 07:00 22,9 C 9,8 C 11,8 C 96 % 0 % 1002 hPa 0,0 l/m 0,3 km/h (0 Bft)
20.06.2010 07:03 23,0 C 9,8 C 11,7 C 96 % 0 % 1002 hPa 0,0 l/m 6,2 km/h (2 Bft)
20.06.2010 07:06 23,0 C 9,8 C 11,7 C 96 % 0 % 1002 hPa 0,0 l/m 4,8 km/h (1 Bft)
20.06.2010 07:09 22,9 C 9,8 C 11,8 C 96 % 0 % 1002 hPa 0,0 l/m 0,6 km/h (0 Bft)
20.06.2010 07:12 23,0 C 9,9 C 11,8 C 96 % 0 % 1002 hPa 0,0 l/m 2,7 km/h (1 Bft)
20.06.2010 07:15 23,0 C 10,0 C 11,8 C 96 % 0 % 1002 hPa 0,0 l/m 5,7 km/h (1 Bft)
20.06.2010 07:18 23,0 C 10,0 C 11,7 C 96 % 0 % 1002 hPa 0,0 l/m 3,8 km/h (1 Bft)
20.06.2010 07:21 22,9 C 9,9 C 11,8 C 96 % 0 % 1002 hPa 0,0 l/m 5,4 km/h (1 Bft)
20.06.2010 07:24 22,9 C 9,9 C 11,7 C 96 % 0 % 1002 hPa 0,0 l/m 5,9 km/h (2 Bft)
20.06.2010 07:27 22,9 C 9,9 C 11,8 C 96 % 0 % 1002 hPa 0,0 l/m 6,8 km/h (2 Bft)
20.06.2010 07:30 23,0 C 9,9 C 11,8 C 96 % 0 % 1002 hPa 0,3 l/m 5,5 km/h (1 Bft)
20.06.2010 07:33 22,9 C 9,9 C 11,7 C 96 % 0 % 1003 hPa 0,0 l/m 9,4 km/h (2 Bft)
20.06.2010 07:36 22,9 C 9,9 C 11,7 C 96 % 0 % 1003 hPa 0,0 l/m 3,9 km/h (1 Bft)
20.06.2010 07:39 22,9 C 9,9 C 11,7 C 96 % 0 % 1003 hPa 0,0 l/m 6,7 km/h (2 Bft)
20.06.2010 07:42 22,9 C 9,9 C 11,8 C 96 % 0 % 1003 hPa 0,0 l/m 0,0 km/h (0 Bft)
20.06.2010 07:45 22,9 C 10,0 C 11,9 C 96 % 0 % 1002 hPa 0,0 l/m 4,8 km/h (1 Bft)
20.06.2010 07:48 22,9 C 10,0 C 11,9 C 96 % 0 % 1003 hPa 0,0 l/m 5,6 km/h (1 Bft)
20.06.2010 07:51 22,9 C 10,0 C 11,9 C 96 % 0 % 1002 hPa 0,0 l/m 0,1 km/h (0 Bft)
20.06.2010 07:54 22,9 C 10,1 C 12,0 C 96 % 0 % 1003 hPa 0,0 l/m 5,6 km/h (1 Bft)
20.06.2010 07:57 22,9 C 10,1 C 12,0 C 96 % 0 % 1002 hPa 0,0 l/m 0,4 km/h (0 Bft)
20.06.2010 08:00 23,0 C 10,1 C 12,1 C 96 % 0 % 1002 hPa 0,0 l/m 4,1 km/h (1 Bft)
20.06.2010 08:03 23,0 C 10,2 C 12,1 C 96 % 0 % 1002 hPa 0,0 l/m 0,3 km/h (0 Bft)
20.06.2010 08:06 23,1 C 10,1 C 12,1 C 96 % 0 % 1002 hPa 0,0 l/m 0,3 km/h (0 Bft)
20.06.2010 08:09 23,0 C 10,1 C 11,8 C 96 % 0 % 1002 hPa 0,0 l/m 8,5 km/h (2 Bft)
20.06.2010 08:12 23,1 C 10,1 C 11,8 C 96 % 0 % 1003 hPa 0,0 l/m 4,0 km/h (1 Bft)
20.06.2010 08:15 23,1 C 10,0 C 11,8 C 96 % 0 % 1003 hPa 0,0 l/m 1,3 km/h (1 Bft)
20.06.2010 08:18 23,1 C 10,0 C 12,0 C 96 % 0 % 1003 hPa 0,3 l/m 0,3 km/h (0 Bft)
20.06.2010 08:21 23,1 C 10,1 C 12,0 C 96 % 0 % 1003 hPa 0,0 l/m 0,9 km/h (0 Bft)
20.06.2010 08:24 23,2 C 10,0 C 11,9 C 96 % 0 % 1003 hPa 0,0 l/m 6,4 km/h (2 Bft)
20.06.2010 08:27 23,2 C 10,0 C 11,8 C 96 % 0 % 1003 hPa 0,0 l/m 7,3 km/h (2 Bft)
20.06.2010 08:30 23,3 C 10,0 C 11,8 C 96 % 0 % 1003 hPa 0,0 l/m 9,6 km/h (2 Bft)
20.06.2010 08:33 23,3 C 10,0 C 11,7 C 96 % 0 % 1003 hPa 0,0 l/m 0,6 km/h (0 Bft)
20.06.2010 08:36 23,3 C 10,0 C 11,8 C 96 % 0 % 1003 hPa 0,0 l/m 1,9 km/h (1 Bft)
20.06.2010 08:39 23,4 C 10,0 C 12,0 C 96 % 0 % 1003 hPa 0,0 l/m 0,1 km/h (0 Bft)
20.06.2010 08:42 23,3 C 10,1 C 12,1 C 96 % 0 % 1003 hPa 0,0 l/m 6,0 km/h (2 Bft)
20.06.2010 08:45 23,3 C 10,1 C 12,0 C 96 % 0 % 1003 hPa 0,0 l/m 0,0 km/h (0 Bft)
20.06.2010 08:48 23,3 C 10,1 C 12,0 C 96 % 0 % 1003 hPa 0,0 l/m 0,4 km/h (0 Bft)
20.06.2010 08:51 23,3 C 10,1 C 12,1 C 96 % 0 % 1003 hPa 0,0 l/m 0,3 km/h (0 Bft)
20.06.2010 08:54 23,4 C 10,1 C 12,3 C 96 % 0 % 1003 hPa 0,0 l/m 0,0 km/h (0 Bft)
20.06.2010 08:57 23,4 C 10,2 C 12,6 C 96 % 0 % 1003 hPa 0,0 l/m 0,1 km/h (0 Bft)
20.06.2010 09:00 23,0 C 10,3 C 12,8 C 96 % 0 % 1003 hPa 0,0 l/m 0,0 km/h (0 Bft)
20.06.2010 09:03 22,3 C 10,4 C 12,8 C 96 % 0 % 1003 hPa 0,0 l/m 0,0 km/h (0 Bft)
20.06.2010 09:06 21,7 C 10,4 C 12,9 C 96 % 0 % 1003 hPa 0,0 l/m 0,4 km/h (0 Bft)
20.06.2010 09:09 21,2 C 10,5 C 12,9 C 96 % 0 % 1003 hPa 0,3 l/m 0,4 km/h (0 Bft)
20.06.2010 09:12 21,0 C 10,5 C 13,0 C 96 % 0 % 1003 hPa 0,0 l/m 0,0 km/h (0 Bft)
20.06.2010 09:15 21,2 C 10,4 C 13,0 C 96 % 0 % 1003 hPa 0,0 l/m 1,9 km/h (1 Bft)
20.06.2010 09:18 21,8 C 10,4 C 12,5 C 96 % 0 % 1003 hPa 0,0 l/m 1,2 km/h (1 Bft)
20.06.2010 09:21 21,9 C 10,4 C 12,6 C 96 % 0 % 1003 hPa 0,0 l/m 0,4 km/h (0 Bft)
20.06.2010 09:24 22,0 C 10,4 C 12,8 C 96 % 0 % 1003 hPa 0,0 l/m 0,0 km/h (0 Bft)
20.06.2010 09:27 22,1 C 10,5 C 12,8 C 96 % 0 % 1003 hPa 0,0 l/m 0,3 km/h (0 Bft)
20.06.2010 09:30 22,2 C 10,6 C 12,7 C 96 % 0 % 1003 hPa 0,0 l/m 0,6 km/h (0 Bft)
20.06.2010 09:33 22,2 C 10,6 C 12,8 C 96 % 0 % 1003 hPa 0,0 l/m 0,0 km/h (0 Bft)
20.06.2010 09:36 22,3 C 10,6 C 13,0 C 96 % 0 % 1003 hPa 0,0 l/m 0,0 km/h (0 Bft)
20.06.2010 09:39 22,3 C 10,8 C 13,3 C 96 % 0 % 1003 hPa 0,0 l/m 0,0 km/h (0 Bft)
20.06.2010 09:42 22,3 C 10,8 C 13,3 C 96 % 0 % 1003 hPa 0,0 l/m 0,0 km/h (0 Bft)
20.06.2010 09:45 22,4 C 10,8 C 13,1 C 95 % 0 % 1003 hPa 0,0 l/m 0,1 km/h (0 Bft)
20.06.2010 09:48 22,4 C 10,9 C 13,3 C 95 % 0 % 1003 hPa 0,0 l/m 0,0 km/h (0 Bft)
20.06.2010 09:51 22,5 C 10,9 C 13,2 C 95 % 0 % 1003 hPa 0,0 l/m 0,0 km/h (0 Bft)
20.06.2010 09:54 22,5 C 11,0 C 13,2 C 96 % 0 % 1003 hPa 0,3 l/m 0,0 km/h (0 Bft)
20.06.2010 09:57 22,5 C 11,0 C 13,3 C 96 % 0 % 1003 hPa 0,0 l/m 0,0 km/h (0 Bft)
20.06.2010 10:00 22,6 C 11,1 C 13,4 C 96 % 0 % 1003 hPa 0,0 l/m 0,1 km/h (0 Bft)
20.06.2010 10:03 22,6 C 11,2 C 13,3 C 96 % 0 % 1003 hPa 0,0 l/m 0,0 km/h (0 Bft)
20.06.2010 10:06 22,6 C 11,2 C 13,3 C 95 % 0 % 1003 hPa 0,0 l/m 0,0 km/h (0 Bft)
20.06.2010 10:09 22,6 C 11,2 C 13,2 C 95 % 0 % 1004 hPa 0,0 l/m 0,0 km/h (0 Bft)
20.06.2010 10:12 22,6 C 11,2 C 13,2 C 95 % 0 % 1004 hPa 0,0 l/m 0,0 km/h (0 Bft)
20.06.2010 10:15 22,6 C 11,2 C 13,4 C 95 % 0 % 1004 hPa 0,0 l/m 0,0 km/h (0 Bft)
20.06.2010 10:18 22,6 C 11,2 C 13,5 C 95 % 0 % 1004 hPa 0,0 l/m 0,0 km/h (0 Bft)
20.06.2010 10:21 22,6 C 11,2 C 13,5 C 95 % 0 % 1004 hPa 0,0 l/m 0,0 km/h (0 Bft)
20.06.2010 10:24 22,6 C 11,2 C 13,5 C 95 % 0 % 1004 hPa 0,0 l/m 0,0 km/h (0 Bft)
20.06.2010 10:27 22,6 C 11,2 C 13,6 C 95 % 0 % 1004 hPa 0,0 l/m 0,0 km/h (0 Bft)
20.06.2010 10:30 22,6 C 11,3 C 13,5 C 95 % 0 % 1004 hPa 0,0 l/m 0,0 km/h (0 Bft)
20.06.2010 10:33 22,7 C 11,4 C 13,2 C 95 % 0 % 1004 hPa 0,3 l/m 0,0 km/h (0 Bft)
20.06.2010 10:36 22,7 C 11,3 C 13,3 C 95 % 0 % 1004 hPa 0,0 l/m 0,0 km/h (0 Bft)
20.06.2010 10:39 22,7 C 11,3 C 13,4 C 95 % 0 % 1004 hPa 0,0 l/m 0,0 km/h (0 Bft)
20.06.2010 10:42 22,7 C 11,3 C 13,5 C 94 % 0 % 1004 hPa 0,0 l/m 0,0 km/h (0 Bft)
20.06.2010 10:45 22,8 C 11,2 C 13,5 C 94 % 0 % 1004 hPa 0,0 l/m 0,1 km/h (0 Bft)
20.06.2010 10:48 22,7 C 11,2 C 13,5 C 94 % 0 % 1004 hPa 0,0 l/m 0,0 km/h (0 Bft)
20.06.2010 10:51 22,8 C 11,2 C 13,4 C 94 % 0 % 1004 hPa 0,0 l/m 3,4 km/h (1 Bft)
20.06.2010 10:54 22,8 C 11,2 C 13,3 C 94 % 0 % 1004 hPa 0,0 l/m 0,2 km/h (0 Bft)
20.06.2010 10:57 22,8 C 11,2 C 13,6 C 94 % 0 % 1004 hPa 0,0 l/m 0,0 km/h (0 Bft)
20.06.2010 11:00 22,8 C 11,3 C 13,9 C 94 % 0 % 1004 hPa 0,0 l/m 0,0 km/h (0 Bft)
20.06.2010 11:03 22,8 C 11,3 C 13,9 C 94 % 0 % 1004 hPa 0,0 l/m 0,0 km/h (0 Bft)
20.06.2010 11:06 22,8 C 11,4 C 14,0 C 94 % 0 % 1004 hPa 0,0 l/m 0,0 km/h (0 Bft)
20.06.2010 11:09 22,9 C 11,5 C 14,0 C 94 % 0 % 1004 hPa 0,0 l/m 0,0 km/h (0 Bft)
20.06.2010 11:12 22,9 C 11,6 C 14,2 C 94 % 0 % 1004 hPa 0,0 l/m 0,0 km/h (0 Bft)
20.06.2010 11:15 22,9 C 11,7 C 14,2 C 94 % 0 % 1004 hPa 0,0 l/m 0,0 km/h (0 Bft)
20.06.2010 11:18 23,0 C 11,8 C 14,2 C 94 % 0 % 1004 hPa 0,0 l/m 0,0 km/h (0 Bft)
20.06.2010 11:21 23,0 C 11,8 C 14,2 C 94 % 0 % 1004 hPa 0,0 l/m 0,0 km/h (0 Bft)
20.06.2010 11:24 23,0 C 11,8 C 14,1 C 94 % 0 % 1004 hPa 0,0 l/m 0,6 km/h (0 Bft)
20.06.2010 11:27 23,0 C 11,7 C 14,1 C 93 % 0 % 1004 hPa 0,0 l/m 0,0 km/h (0 Bft)
20.06.2010 11:30 23,0 C 11,7 C 14,2 C 93 % 0 % 1004 hPa 0,0 l/m 0,0 km/h (0 Bft)
20.06.2010 11:33 23,0 C 11,8 C 14,0 C 93 % 0 % 1004 hPa 0,0 l/m 0,0 km/h (0 Bft)
20.06.2010 11:36 23,0 C 11,8 C 14,0 C 93 % 0 % 1004 hPa 0,0 l/m 0,0 km/h (0 Bft)
20.06.2010 11:39 22,9 C 11,8 C 13,7 C 93 % 0 % 1004 hPa 0,0 l/m 4,5 km/h (1 Bft)
20.06.2010 11:42 22,9 C 11,8 C 13,2 C 93 % 0 % 1004 hPa 0,0 l/m 1,3 km/h (1 Bft)
20.06.2010 11:45 22,8 C 11,8 C 13,3 C 93 % 0 % 1004 hPa 0,0 l/m 3,0 km/h (1 Bft)
20.06.2010 11:48 22,8 C 11,5 C 13,3 C 90 % 0 % 1004 hPa 0,0 l/m 2,2 km/h (1 Bft)
20.06.2010 11:51 22,8 C 11,5 C 13,3 C 90 % 0 % 1004 hPa 0,0 l/m 0,3 km/h (0 Bft)
20.06.2010 11:54 22,7 C 11,5 C 13,5 C 90 % 0 % 1004 hPa 0,0 l/m 0,0 km/h (0 Bft)
20.06.2010 11:57 22,7 C 11,6 C 13,5 C 92 % 0 % 1004 hPa 0,0 l/m 0,0 km/h (0 Bft)
20.06.2010 12:00 22,7 C 11,7 C 13,9 C 92 % 0 % 1004 hPa 0,0 l/m 0,0 km/h (0 Bft)
20.06.2010 12:03 22,7 C 11,8 C 13,9 C 92 % 0 % 1004 hPa 0,0 l/m 0,0 km/h (0 Bft)
20.06.2010 12:06 22,7 C 11,8 C 13,8 C 91 % 0 % 1004 hPa 0,0 l/m 6,2 km/h (2 Bft)
20.06.2010 12:09 22,6 C 11,8 C 13,7 C 91 % 0 % 1004 hPa 0,0 l/m 3,7 km/h (1 Bft)
20.06.2010 12:12 22,7 C 11,7 C 13,7 C 90 % 0 % 1004 hPa 0,0 l/m 7,5 km/h (2 Bft)
20.06.2010 12:15 22,8 C 11,6 C 13,5 C 90 % 0 % 1004 hPa 0,0 l/m 4,1 km/h (1 Bft)
20.06.2010 12:18 22,9 C 11,6 C 13,5 C 90 % 0 % 1004 hPa 0,0 l/m 0,3 km/h (0 Bft)
20.06.2010 12:21 23,1 C 11,6 C 13,3 C 90 % 0 % 1004 hPa 0,0 l/m 4,0 km/h (1 Bft)
20.06.2010 12:24 23,2 C 11,6 C 13,3 C 91 % 0 % 1004 hPa 0,0 l/m 1,6 km/h (1 Bft)
20.06.2010 12:27 23,2 C 11,6 C 13,1 C 90 % 0 % 1004 hPa 0,0 l/m 6,8 km/h (2 Bft)
20.06.2010 12:30 23,2 C 11,5 C 13,0 C 90 % 0 % 1004 hPa 0,0 l/m 7,6 km/h (2 Bft)
20.06.2010 12:33 23,2 C 11,5 C 13,2 C 90 % 0 % 1004 hPa 0,0 l/m 7,6 km/h (2 Bft)
20.06.2010 12:36 22,9 C 11,6 C 13,6 C 90 % 0 % 1004 hPa 0,0 l/m 5,6 km/h (1 Bft)
20.06.2010 12:39 22,9 C 11,7 C 14,0 C 90 % 0 % 1004 hPa 0,0 l/m 0,1 km/h (0 Bft)
20.06.2010 12:42 21,9 C 11,8 C 14,4 C 91 % 0 % 1004 hPa 0,0 l/m 0,0 km/h (0 Bft)
20.06.2010 12:45 21,5 C 11,8 C 14,5 C 91 % 0 % 1004 hPa 0,0 l/m 4,3 km/h (1 Bft)
20.06.2010 12:48 20,9 C 12,0 C 14,3 C 90 % 0 % 1004 hPa 0,0 l/m 13,0 km/h (3 Bft)
20.06.2010 12:51 20,7 C 12,1 C 13,9 C 89 % 0 % 1004 hPa 0,0 l/m 12,0 km/h (2 Bft)
20.06.2010 12:54 20,5 C 12,0 C 13,9 C 88 % 0 % 1004 hPa 0,0 l/m 12,4 km/h (3 Bft)
20.06.2010 12:57 20,4 C 12,0 C 13,6 C 88 % 0 % 1004 hPa 0,0 l/m 9,1 km/h (2 Bft)
20.06.2010 13:00 20,2 C 12,0 C 13,5 C 88 % 0 % 1004 hPa 0,0 l/m 13,0 km/h (3 Bft)
20.06.2010 13:03 20,1 C 12,0 C 13,8 C 88 % 0 % 1005 hPa 0,0 l/m 4,8 km/h (1 Bft)
20.06.2010 13:06 20,4 C 12,1 C 13,5 C 86 % 0 % 1005 hPa 0,0 l/m 10,3 km/h (2 Bft)
20.06.2010 13:09 20,7 C 12,1 C 13,6 C 87 % 0 % 1005 hPa 0,0 l/m 10,3 km/h (2 Bft)
20.06.2010 13:12 21,0 C 12,1 C 13,6 C 87 % 0 % 1005 hPa 0,0 l/m 8,7 km/h (2 Bft)
20.06.2010 13:15 21,5 C 12,1 C 13,4 C 87 % 0 % 1005 hPa 0,0 l/m 8,7 km/h (2 Bft)
20.06.2010 13:18 21,6 C 12,1 C 13,4 C 87 % 0 % 1005 hPa 0,0 l/m 7,2 km/h (2 Bft)
20.06.2010 13:21 21,8 C 12,1 C 13,8 C 87 % 0 % 1005 hPa 0,0 l/m 10,3 km/h (2 Bft)
20.06.2010 13:24 21,8 C 12,1 C 13,6 C 87 % 0 % 1005 hPa 0,0 l/m 6,4 km/h (2 Bft)
20.06.2010 13:27 22,0 C 12,0 C 13,4 C 86 % 0 % 1005 hPa 0,0 l/m 5,9 km/h (2 Bft)
20.06.2010 13:30 22,0 C 12,0 C 13,1 C 86 % 0 % 1005 hPa 0,0 l/m 9,8 km/h (2 Bft)
20.06.2010 13:33 22,0 C 12,0 C 13,4 C 86 % 0 % 1005 hPa 0,0 l/m 9,2 km/h (2 Bft)
20.06.2010 13:36 22,2 C 12,0 C 13,3 C 86 % 0 % 1005 hPa 0,0 l/m 5,1 km/h (1 Bft)
20.06.2010 13:39 22,2 C 12,0 C 13,4 C 86 % 0 % 1005 hPa 0,0 l/m 6,7 km/h (2 Bft)
20.06.2010 13:42 22,3 C 12,0 C 13,3 C 86 % 0 % 1005 hPa 0,0 l/m 9,6 km/h (2 Bft)
20.06.2010 13:45 22,4 C 12,0 C 13,4 C 85 % 0 % 1005 hPa 0,0 l/m 8,0 km/h (2 Bft)
20.06.2010 13:48 22,4 C 12,0 C 13,4 C 85 % 0 % 1005 hPa 0,0 l/m 0,5 km/h (0 Bft)
20.06.2010 13:51 22,4 C 12,0 C 13,2 C 85 % 0 % 1005 hPa 0,0 l/m 2,9 km/h (1 Bft)
20.06.2010 13:54 22,5 C 12,0 C 13,4 C 85 % 0 % 1005 hPa 0,0 l/m 0,0 km/h (0 Bft)
20.06.2010 13:57 22,5 C 12,0 C 13,8 C 85 % 0 % 1005 hPa 0,0 l/m 0,4 km/h (0 Bft)
20.06.2010 14:00 22,5 C 12,0 C 13,8 C 86 % 0 % 1005 hPa 0,0 l/m 0,8 km/h (0 Bft)
20.06.2010 14:03 22,5 C 12,1 C 13,6 C 86 % 0 % 1005 hPa 0,0 l/m 5,6 km/h (1 Bft)
20.06.2010 14:06 22,5 C 12,1 C 13,9 C 86 % 0 % 1005 hPa 0,0 l/m 0,0 km/h (0 Bft)
20.06.2010 14:09 22,6 C 12,2 C 13,8 C 85 % 0 % 1005 hPa 0,0 l/m 1,3 km/h (1 Bft)
20.06.2010 14:12 22,6 C 12,3 C 13,8 C 85 % 0 % 1005 hPa 0,0 l/m 9,6 km/h (2 Bft)
20.06.2010 14:15 22,6 C 12,4 C 13,8 C 85 % 0 % 1005 hPa 0,0 l/m 7,1 km/h (2 Bft)
20.06.2010 14:18 22,6 C 12,4 C 14,2 C 85 % 0 % 1005 hPa 0,0 l/m 3,0 km/h (1 Bft)
20.06.2010 14:21 22,7 C 12,6 C 14,3 C 85 % 0 % 1005 hPa 0,0 l/m 5,4 km/h (1 Bft)
20.06.2010 14:24 22,6 C 12,6 C 14,1 C 85 % 0 % 1005 hPa 0,0 l/m 12,2 km/h (2 Bft)
20.06.2010 14:27 22,7 C 12,6 C 14,3 C 85 % 0 % 1005 hPa 0,0 l/m 11,3 km/h (2 Bft)
20.06.2010 14:30 22,8 C 12,8 C 14,2 C 82 % 0 % 1005 hPa 0,0 l/m 11,7 km/h (2 Bft)
20.06.2010 14:33 23,1 C 12,8 C 14,1 C 82 % 0 % 1005 hPa 0,0 l/m 12,0 km/h (2 Bft)
20.06.2010 14:36 23,2 C 12,8 C 14,4 C 83 % 0 % 1005 hPa 0,0 l/m 10,8 km/h (2 Bft)
20.06.2010 14:39 23,3 C 12,8 C 14,2 C 83 % 0 % 1005 hPa 0,0 l/m 15,0 km/h (3 Bft)
20.06.2010 14:42 23,4 C 12,8 C 14,0 C 83 % 0 % 1005 hPa 0,0 l/m 15,0 km/h (3 Bft)
20.06.2010 14:45 23,4 C 12,8 C 14,0 C 84 % 0 % 1005 hPa 0,0 l/m 9,6 km/h (2 Bft)
20.06.2010 14:48 23,5 C 12,8 C 14,0 C 86 % 0 % 1005 hPa 0,0 l/m 10,1 km/h (2 Bft)
20.06.2010 14:51 23,5 C 12,8 C 14,0 C 86 % 0 % 1005 hPa 0,0 l/m 5,2 km/h (1 Bft)
20.06.2010 14:54 23,6 C 12,8 C 14,2 C 86 % 0 % 1005 hPa 0,0 l/m 1,0 km/h (0 Bft)
20.06.2010 14:57 23,7 C 12,8 C 13,8 C 86 % 0 % 1005 hPa 0,0 l/m 7,3 km/h (2 Bft)
20.06.2010 15:00 23,8 C 12,7 C 13,3 C 82 % 0 % 1005 hPa 0,0 l/m 15,3 km/h (3 Bft)
20.06.2010 15:03 23,8 C 12,7 C 13,5 C 82 % 0 % 1005 hPa 0,0 l/m 13,9 km/h (3 Bft)
20.06.2010 15:06 23,8 C 12,4 C 13,2 C 80 % 0 % 1005 hPa 0,0 l/m 14,9 km/h (3 Bft)
20.06.2010 15:09 23,7 C 12,4 C 13,2 C 82 % 0 % 1005 hPa 0,0 l/m 13,5 km/h (3 Bft)
20.06.2010 15:12 23,8 C 12,4 C 13,3 C 82 % 0 % 1005 hPa 0,0 l/m 11,1 km/h (2 Bft)
20.06.2010 15:15 23,7 C 12,4 C 13,3 C 82 % 0 % 1005 hPa 0,0 l/m 9,8 km/h (2 Bft)
20.06.2010 15:18 23,7 C 12,5 C 13,8 C 81 % 0 % 1005 hPa 0,0 l/m 10,7 km/h (2 Bft)
20.06.2010 15:21 23,7 C 12,5 C 13,7 C 81 % 0 % 1005 hPa 0,0 l/m 15,5 km/h (3 Bft)
20.06.2010 15:24 23,7 C 12,5 C 13,5 C 81 % 0 % 1005 hPa 0,0 l/m 11,3 km/h (2 Bft)
20.06.2010 15:27 23,7 C 12,5 C 13,7 C 81 % 0 % 1005 hPa 0,0 l/m 16,3 km/h (3 Bft)
20.06.2010 15:30 23,7 C 12,6 C 14,0 C 82 % 0 % 1005 hPa 0,0 l/m 0,6 km/h (0 Bft)
20.06.2010 15:33 23,7 C 12,7 C 14,0 C 83 % 0 % 1005 hPa 0,0 l/m 5,1 km/h (1 Bft)
20.06.2010 15:36 23,8 C 12,8 C 13,9 C 83 % 0 % 1005 hPa 0,0 l/m 6,1 km/h (2 Bft)
20.06.2010 15:39 23,8 C 12,8 C 14,1 C 83 % 0 % 1005 hPa 0,0 l/m 0,3 km/h (0 Bft)
20.06.2010 15:42 23,8 C 12,8 C 13,8 C 83 % 0 % 1005 hPa 0,0 l/m 8,8 km/h (2 Bft)
20.06.2010 15:45 23,8 C 12,8 C 13,8 C 83 % 0 % 1005 hPa 0,0 l/m 4,6 km/h (1 Bft)
20.06.2010 15:48 23,8 C 12,8 C 13,9 C 82 % 0 % 1005 hPa 0,0 l/m 9,8 km/h (2 Bft)
20.06.2010 15:51 23,6 C 12,8 C 13,6 C 82 % 0 % 1005 hPa 0,0 l/m 6,1 km/h (2 Bft)
20.06.2010 15:54 23,6 C 12,8 C 13,9 C 83 % 0 % 1005 hPa 0,0 l/m 4,6 km/h (1 Bft)
20.06.2010 15:57 23,5 C 12,8 C 14,3 C 83 % 0 % 1005 hPa 0,0 l/m 0,5 km/h (0 Bft)
20.06.2010 16:00 23,4 C 12,8 C 14,1 C 83 % 0 % 1005 hPa 0,0 l/m 7,2 km/h (2 Bft)
20.06.2010 16:03 23,4 C 13,0 C 14,1 C 83 % 0 % 1005 hPa 0,0 l/m 3,1 km/h (1 Bft)
20.06.2010 16:06 23,3 C 13,0 C 14,0 C 83 % 0 % 1005 hPa 0,0 l/m 6,2 km/h (2 Bft)
20.06.2010 16:09 23,3 C 13,0 C 14,1 C 83 % 0 % 1005 hPa 0,0 l/m 0,8 km/h (0 Bft)
20.06.2010 16:12 23,2 C 13,0 C 14,1 C 83 % 0 % 1005 hPa 0,0 l/m 0,0 km/h (0 Bft)
20.06.2010 16:15 23,2 C 13,0 C 14,7 C 83 % 0 % 1005 hPa 0,0 l/m 0,2 km/h (0 Bft)
20.06.2010 16:18 23,1 C 13,1 C 14,3 C 82 % 0 % 1005 hPa 0,0 l/m 0,5 km/h (0 Bft)
20.06.2010 16:21 23,1 C 13,1 C 14,3 C 82 % 0 % 1005 hPa 0,0 l/m 3,9 km/h (1 Bft)
20.06.2010 16:24 23,0 C 13,1 C 14,7 C 82 % 0 % 1005 hPa 0,0 l/m 0,2 km/h (0 Bft)
20.06.2010 16:27 23,0 C 13,1 C 14,7 C 82 % 0 % 1006 hPa 0,0 l/m 5,0 km/h (1 Bft)
20.06.2010 16:30 23,0 C 13,1 C 14,1 C 82 % 0 % 1006 hPa 0,0 l/m 0,3 km/h (0 Bft)
20.06.2010 16:33 23,0 C 13,1 C 13,8 C 82 % 0 % 1006 hPa 0,0 l/m 8,4 km/h (2 Bft)
20.06.2010 16:36 23,0 C 13,1 C 13,6 C 82 % 0 % 1006 hPa 0,0 l/m 10,8 km/h (2 Bft)
20.06.2010 16:39 23,0 C 12,9 C 13,5 C 82 % 0 % 1006 hPa 0,0 l/m 9,4 km/h (2 Bft)
20.06.2010 16:42 23,0 C 12,9 C 13,5 C 82 % 0 % 1005 hPa 0,0 l/m 9,4 km/h (2 Bft)
20.06.2010 16:45 23,0 C 12,9 C 14,1 C 82 % 0 % 1005 hPa 0,0 l/m 0,0 km/h (0 Bft)
20.06.2010 16:48 22,9 C 12,9 C 14,0 C 82 % 0 % 1006 hPa 0,3 l/m 4,0 km/h (1 Bft)
20.06.2010 16:51 22,9 C 12,8 C 13,7 C 84 % 0 % 1006 hPa 0,0 l/m 9,2 km/h (2 Bft)
20.06.2010 16:54 22,9 C 12,8 C 13,8 C 84 % 0 % 1006 hPa 0,0 l/m 3,9 km/h (1 Bft)
20.06.2010 16:57 22,8 C 12,8 C 13,7 C 84 % 0 % 1006 hPa 0,0 l/m 4,6 km/h (1 Bft)
20.06.2010 17:00 22,9 C 12,8 C 13,5 C 84 % 0 % 1006 hPa 0,0 l/m 4,6 km/h (1 Bft)
20.06.2010 17:03 22,8 C 12,7 C 13,5 C 85 % 0 % 1006 hPa 0,0 l/m 6,8 km/h (2 Bft)
20.06.2010 17:06 22,8 C 12,8 C 13,5 C 85 % 0 % 1006 hPa 0,0 l/m 4,3 km/h (1 Bft)
20.06.2010 17:09 22,8 C 12,6 C 13,6 C 86 % 0 % 1006 hPa 0,0 l/m 6,7 km/h (2 Bft)
20.06.2010 17:12 22,8 C 12,5 C 13,6 C 86 % 0 % 1006 hPa 0,0 l/m 6,6 km/h (2 Bft)
20.06.2010 17:15 22,8 C 12,5 C 13,5 C 86 % 0 % 1006 hPa 0,3 l/m 5,3 km/h (1 Bft)
20.06.2010 17:18 22,8 C 12,4 C 13,5 C 86 % 0 % 1006 hPa 0,0 l/m 3,9 km/h (1 Bft)
20.06.2010 17:21 22,8 C 12,4 C 13,4 C 86 % 0 % 1006 hPa 0,0 l/m 5,0 km/h (1 Bft)
20.06.2010 17:24 22,8 C 12,5 C 13,6 C 87 % 0 % 1006 hPa 0,0 l/m 6,2 km/h (2 Bft)
20.06.2010 17:27 22,9 C 12,5 C 13,5 C 87 % 0 % 1006 hPa 0,0 l/m 5,1 km/h (1 Bft)
20.06.2010 17:30 22,9 C 12,5 C 13,4 C 87 % 0 % 1006 hPa 0,0 l/m 4,6 km/h (1 Bft)
20.06.2010 17:33 22,9 C 12,4 C 13,4 C 88 % 0 % 1006 hPa 0,0 l/m 5,0 km/h (1 Bft)
20.06.2010 17:36 23,1 C 12,4 C 13,4 C 88 % 0 % 1006 hPa 0,0 l/m 6,8 km/h (2 Bft)
20.06.2010 17:39 23,2 C 12,3 C 13,2 C 88 % 0 % 1006 hPa 0,3 l/m 7,0 km/h (2 Bft)
20.06.2010 17:42 23,3 C 12,3 C 13,2 C 88 % 0 % 1006 hPa 0,0 l/m 6,5 km/h (2 Bft)
20.06.2010 17:45 23,4 C 12,2 C 13,2 C 88 % 0 % 1006 hPa 0,0 l/m 6,2 km/h (2 Bft)
20.06.2010 17:48 23,5 C 12,2 C 13,3 C 88 % 0 % 1006 hPa 0,0 l/m 5,7 km/h (1 Bft)
20.06.2010 17:51 23,6 C 12,1 C 13,3 C 90 % 0 % 1006 hPa 0,0 l/m 6,7 km/h (2 Bft)
20.06.2010 17:54 23,7 C 12,1 C 13,3 C 90 % 0 % 1006 hPa 0,0 l/m 3,3 km/h (1 Bft)
20.06.2010 17:57 23,8 C 12,1 C 13,3 C 90 % 0 % 1006 hPa 0,3 l/m 3,3 km/h (1 Bft)
20.06.2010 18:00 23,8 C 12,1 C 13,3 C 90 % 0 % 1006 hPa 0,0 l/m 4,6 km/h (1 Bft)
20.06.2010 18:03 23,8 C 12,1 C 13,4 C 90 % 0 % 1006 hPa 0,0 l/m 4,8 km/h (1 Bft)
20.06.2010 18:06 23,8 C 12,1 C 13,3 C 90 % 0 % 1006 hPa 0,0 l/m 4,6 km/h (1 Bft)
20.06.2010 18:09 23,8 C 12,1 C 13,4 C 90 % 0 % 1006 hPa 0,0 l/m 7,9 km/h (2 Bft)
20.06.2010 18:12 23,8 C 12,0 C 13,3 C 90 % 0 % 1006 hPa 0,0 l/m 6,1 km/h (2 Bft)
20.06.2010 18:15 23,8 C 12,0 C 13,2 C 90 % 0 % 1006 hPa 0,0 l/m 5,8 km/h (2 Bft)
20.06.2010 18:18 23,8 C 12,0 C 13,2 C 90 % 0 % 1006 hPa 0,0 l/m 5,4 km/h (1 Bft)
20.06.2010 18:21 23,8 C 12,0 C 13,5 C 90 % 0 % 1006 hPa 0,0 l/m 0,0 km/h (0 Bft)
20.06.2010 18:24 23,8 C 12,0 C 13,4 C 91 % 0 % 1006 hPa 0,0 l/m 0,0 km/h (0 Bft)
20.06.2010 18:27 23,8 C 12,0 C 13,3 C 91 % 0 % 1006 hPa 0,0 l/m 7,5 km/h (2 Bft)
20.06.2010 18:30 23,8 C 12,0 C 13,3 C 91 % 0 % 1006 hPa 0,3 l/m 6,9 km/h (2 Bft)
20.06.2010 18:33 23,8 C 12,0 C 13,2 C 91 % 0 % 1006 hPa 0,0 l/m 6,2 km/h (2 Bft)
20.06.2010 18:36 23,8 C 12,0 C 13,2 C 91 % 0 % 1006 hPa 0,0 l/m 5,0 km/h (1 Bft)
20.06.2010 18:39 23,8 C 11,9 C 13,1 C 91 % 0 % 1006 hPa 0,0 l/m 0,0 km/h (0 Bft)
20.06.2010 18:42 22,3 C 11,9 C 13,3 C 91 % 0 % 1006 hPa 0,0 l/m 0,2 km/h (0 Bft)
20.06.2010 18:45 22,2 C 11,9 C 13,3 C 91 % 0 % 1006 hPa 0,0 l/m 5,7 km/h (1 Bft)
20.06.2010 18:48 22,2 C 11,7 C 12,9 C 90 % 0 % 1006 hPa 0,0 l/m 5,7 km/h (1 Bft)
20.06.2010 18:51 22,4 C 11,7 C 12,8 C 90 % 0 % 1006 hPa 0,0 l/m 5,1 km/h (1 Bft)
20.06.2010 18:54 22,7 C 11,7 C 12,8 C 90 % 0 % 1006 hPa 0,3 l/m 7,4 km/h (2 Bft)
20.06.2010 18:57 22,8 C 11,5 C 12,7 C 90 % 0 % 1006 hPa 0,0 l/m 6,8 km/h (2 Bft)
20.06.2010 19:00 22,8 C 11,5 C 12,8 C 90 % 0 % 1007 hPa 0,0 l/m 6,3 km/h (2 Bft)
20.06.2010 19:03 22,9 C 11,5 C 12,7 C 90 % 0 % 1007 hPa 0,0 l/m 8,1 km/h (2 Bft)
20.06.2010 19:06 23,0 C 11,4 C 12,6 C 90 % 0 % 1007 hPa 0,0 l/m 5,1 km/h (1 Bft)
20.06.2010 19:09 22,9 C 11,3 C 12,6 C 90 % 0 % 1007 hPa 0,0 l/m 3,9 km/h (1 Bft)
20.06.2010 19:12 22,9 C 11,3 C 12,5 C 90 % 0 % 1007 hPa 0,0 l/m 7,2 km/h (2 Bft)
20.06.2010 19:15 23,0 C 11,4 C 12,7 C 90 % 0 % 1007 hPa 0,0 l/m 6,6 km/h (2 Bft)
20.06.2010 19:18 23,0 C 11,4 C 12,6 C 91 % 0 % 1007 hPa 0,0 l/m 6,5 km/h (2 Bft)
20.06.2010 19:21 23,0 C 11,4 C 12,8 C 91 % 0 % 1007 hPa 0,0 l/m 5,6 km/h (1 Bft)
20.06.2010 19:24 23,0 C 11,4 C 12,8 C 91 % 0 % 1007 hPa 0,0 l/m 4,6 km/h (1 Bft)
20.06.2010 19:27 23,0 C 11,5 C 12,7 C 92 % 0 % 1007 hPa 0,0 l/m 7,3 km/h (2 Bft)
20.06.2010 19:30 23,0 C 11,4 C 12,6 C 92 % 0 % 1007 hPa 0,0 l/m 7,1 km/h (2 Bft)
20.06.2010 19:33 23,0 C 11,4 C 12,6 C 92 % 0 % 1007 hPa 0,0 l/m 7,4 km/h (2 Bft)
20.06.2010 19:36 23,0 C 11,3 C 12,6 C 92 % 0 % 1007 hPa 0,0 l/m 4,8 km/h (1 Bft)
20.06.2010 19:39 23,0 C 11,3 C 12,7 C 92 % 0 % 1007 hPa 0,0 l/m 3,3 km/h (1 Bft)
20.06.2010 19:42 23,0 C 11,4 C 12,8 C 93 % 0 % 1007 hPa 0,0 l/m 3,3 km/h (1 Bft)
20.06.2010 19:45 23,0 C 11,4 C 12,9 C 93 % 0 % 1007 hPa 0,0 l/m 4,6 km/h (1 Bft)
20.06.2010 19:48 23,1 C 11,4 C 12,8 C 93 % 0 % 1007 hPa 0,0 l/m 3,3 km/h (1 Bft)
20.06.2010 19:51 23,0 C 11,4 C 12,9 C 93 % 0 % 1007 hPa 0,0 l/m 3,8 km/h (1 Bft)
20.06.2010 19:54 23,0 C 11,4 C 12,8 C 93 % 0 % 1007 hPa 0,0 l/m 0,7 km/h (0 Bft)
20.06.2010 19:57 23,1 C 11,4 C 12,8 C 93 % 0 % 1007 hPa 0,0 l/m 0,8 km/h (0 Bft)
20.06.2010 20:00 23,1 C 11,4 C 12,9 C 93 % 0 % 1007 hPa 0,0 l/m 2,3 km/h (1 Bft)
20.06.2010 20:03 23,1 C 11,5 C 12,9 C 93 % 0 % 1007 hPa 0,0 l/m 0,0 km/h (0 Bft)
20.06.2010 20:06 23,1 C 11,4 C 12,9 C 93 % 0 % 1007 hPa 0,0 l/m 3,4 km/h (1 Bft)
20.06.2010 20:09 23,1 C 11,4 C 12,7 C 93 % 0 % 1007 hPa 0,0 l/m 6,6 km/h (2 Bft)
20.06.2010 20:12 23,1 C 11,4 C 12,8 C 93 % 0 % 1007 hPa 0,0 l/m 8,5 km/h (2 Bft)
20.06.2010 20:15 23,1 C 11,3 C 12,5 C 93 % 0 % 1007 hPa 0,0 l/m 8,5 km/h (2 Bft)
20.06.2010 20:18 23,1 C 11,2 C 12,5 C 93 % 0 % 1007 hPa 0,0 l/m 8,1 km/h (2 Bft)
20.06.2010 20:21 23,0 C 11,1 C 12,5 C 93 % 0 % 1007 hPa 0,0 l/m 9,6 km/h (2 Bft)
20.06.2010 20:24 23,1 C 11,1 C 12,5 C 93 % 0 % 1007 hPa 0,0 l/m 7,9 km/h (2 Bft)
20.06.2010 20:27 23,1 C 11,0 C 12,2 C 93 % 0 % 1007 hPa 0,0 l/m 4,6 km/h (1 Bft)
20.06.2010 20:30 23,0 C 11,0 C 12,3 C 93 % 0 % 1007 hPa 0,0 l/m 2,0 km/h (1 Bft)
20.06.2010 20:33 23,0 C 11,0 C 12,3 C 93 % 0 % 1007 hPa 0,0 l/m 7,0 km/h (2 Bft)
20.06.2010 20:36 23,0 C 10,9 C 12,2 C 93 % 0 % 1007 hPa 0,0 l/m 6,3 km/h (2 Bft)
20.06.2010 20:39 23,0 C 10,9 C 12,2 C 93 % 0 % 1007 hPa 0,0 l/m 8,7 km/h (2 Bft)
20.06.2010 20:42 23,0 C 10,8 C 12,2 C 93 % 0 % 1007 hPa 0,0 l/m 8,5 km/h (2 Bft)
20.06.2010 20:45 23,0 C 10,8 C 12,2 C 93 % 0 % 1007 hPa 0,0 l/m 6,0 km/h (2 Bft)
20.06.2010 20:48 23,0 C 10,8 C 12,2 C 93 % 0 % 1007 hPa 0,0 l/m 8,5 km/h (2 Bft)
20.06.2010 20:51 23,0 C 10,8 C 12,2 C 93 % 0 % 1007 hPa 0,0 l/m 6,6 km/h (2 Bft)
20.06.2010 20:54 23,0 C 10,8 C 12,2 C 93 % 0 % 1007 hPa 0,0 l/m 8,8 km/h (2 Bft)
20.06.2010 20:57 23,0 C 10,8 C 12,2 C 93 % 0 % 1007 hPa 0,0 l/m 5,3 km/h (1 Bft)
20.06.2010 21:00 23,0 C 10,8 C 12,3 C 93 % 0 % 1007 hPa 0,0 l/m 5,5 km/h (1 Bft)
20.06.2010 21:03 23,0 C 10,8 C 12,3 C 93 % 0 % 1007 hPa 0,0 l/m 5,0 km/h (1 Bft)
20.06.2010 21:06 23,0 C 10,8 C 12,2 C 93 % 0 % 1008 hPa 0,0 l/m 5,4 km/h (1 Bft)
20.06.2010 21:09 23,0 C 10,8 C 12,2 C 93 % 0 % 1008 hPa 0,0 l/m 5,4 km/h (1 Bft)
20.06.2010 21:12 23,0 C 10,8 C 12,2 C 93 % 0 % 1008 hPa 0,0 l/m 5,4 km/h (1 Bft)
20.06.2010 21:15 23,0 C 10,8 C 12,2 C 93 % 0 % 1008 hPa 0,0 l/m 4,6 km/h (1 Bft)
20.06.2010 21:18 23,0 C 10,8 C 12,3 C 93 % 0 % 1008 hPa 0,0 l/m 3,0 km/h (1 Bft)
20.06.2010 21:21 23,0 C 10,8 C 12,3 C 93 % 0 % 1008 hPa 0,0 l/m 6,5 km/h (2 Bft)
20.06.2010 21:24 23,0 C 10,8 C 12,3 C 93 % 0 % 1008 hPa 0,0 l/m 8,1 km/h (2 Bft)
20.06.2010 21:27 23,0 C 10,8 C 12,3 C 93 % 0 % 1008 hPa 0,0 l/m 8,1 km/h (2 Bft)
20.06.2010 21:30 23,0 C 10,8 C 12,2 C 93 % 0 % 1008 hPa 0,0 l/m 9,2 km/h (2 Bft)
20.06.2010 21:33 23,0 C 10,8 C 12,2 C 93 % 0 % 1008 hPa 0,0 l/m 6,7 km/h (2 Bft)
20.06.2010 21:36 23,0 C 10,8 C 12,2 C 93 % 0 % 1008 hPa 0,0 l/m 5,8 km/h (2 Bft)
20.06.2010 21:39 23,0 C 10,8 C 12,2 C 93 % 0 % 1008 hPa 0,0 l/m 8,5 km/h (2 Bft)
20.06.2010 21:42 23,0 C 10,8 C 12,3 C 93 % 0 % 1008 hPa 0,0 l/m 7,1 km/h (2 Bft)
20.06.2010 21:45 23,0 C 10,8 C 12,3 C 93 % 0 % 1008 hPa 0,0 l/m 4,5 km/h (1 Bft)
20.06.2010 21:48 23,0 C 10,8 C 12,2 C 93 % 0 % 1008 hPa 0,0 l/m 10,6 km/h (2 Bft)
20.06.2010 21:51 23,0 C 10,8 C 12,2 C 93 % 0 % 1008 hPa 0,0 l/m 4,5 km/h (1 Bft)
20.06.2010 21:54 23,0 C 10,8 C 12,3 C 93 % 0 % 1008 hPa 0,0 l/m 4,6 km/h (1 Bft)
20.06.2010 21:57 23,0 C 10,8 C 12,3 C 94 % 0 % 1008 hPa 0,0 l/m 7,0 km/h (2 Bft)
20.06.2010 22:00 23,0 C 10,8 C 12,3 C 94 % 0 % 1008 hPa 0,0 l/m 6,8 km/h (2 Bft)
20.06.2010 22:03 23,0 C 10,8 C 12,2 C 94 % 0 % 1008 hPa 0,0 l/m 2,5 km/h (1 Bft)
20.06.2010 22:06 23,0 C 10,8 C 12,2 C 94 % 0 % 1008 hPa 0,0 l/m 6,3 km/h (2 Bft)
20.06.2010 22:09 23,0 C 10,8 C 12,1 C 94 % 0 % 1008 hPa 0,0 l/m 4,2 km/h (1 Bft)
20.06.2010 22:12 23,0 C 10,8 C 12,2 C 94 % 0 % 1008 hPa 0,0 l/m 5,8 km/h (2 Bft)
20.06.2010 22:15 23,0 C 10,8 C 12,2 C 94 % 0 % 1008 hPa 0,0 l/m 5,0 km/h (1 Bft)
20.06.2010 22:18 23,0 C 10,8 C 12,2 C 94 % 0 % 1008 hPa 0,0 l/m 4,3 km/h (1 Bft)
20.06.2010 22:21 23,0 C 10,8 C 12,2 C 94 % 0 % 1008 hPa 0,0 l/m 4,8 km/h (1 Bft)
20.06.2010 22:24 22,9 C 10,8 C 12,2 C 94 % 0 % 1008 hPa 0,0 l/m 4,9 km/h (1 Bft)
20.06.2010 22:27 23,0 C 10,8 C 12,2 C 94 % 0 % 1008 hPa 0,0 l/m 3,4 km/h (1 Bft)
20.06.2010 22:30 23,0 C 10,8 C 12,2 C 94 % 0 % 1008 hPa 0,0 l/m 0,6 km/h (0 Bft)
20.06.2010 22:33 22,9 C 10,8 C 12,3 C 94 % 0 % 1008 hPa 0,0 l/m 0,3 km/h (0 Bft)
20.06.2010 22:36 23,0 C 10,8 C 12,3 C 94 % 0 % 1008 hPa 0,0 l/m 1,2 km/h (1 Bft)
20.06.2010 22:39 22,9 C 10,8 C 12,3 C 94 % 0 % 1008 hPa 0,0 l/m 0,5 km/h (0 Bft)
20.06.2010 22:42 22,9 C 10,8 C 12,3 C 93 % 0 % 1008 hPa 0,0 l/m 0,1 km/h (0 Bft)
20.06.2010 22:45 22,9 C 10,8 C 12,3 C 93 % 0 % 1008 hPa 0,0 l/m 0,0 km/h (0 Bft)
20.06.2010 22:48 22,9 C 10,8 C 12,3 C 93 % 0 % 1008 hPa 0,0 l/m 0,1 km/h (0 Bft)
20.06.2010 22:51 22,9 C 10,8 C 12,3 C 93 % 0 % 1008 hPa 0,0 l/m 0,0 km/h (0 Bft)
20.06.2010 22:54 22,9 C 10,8 C 12,2 C 93 % 0 % 1008 hPa 0,0 l/m 0,0 km/h (0 Bft)
20.06.2010 22:57 22,9 C 10,8 C 12,1 C 93 % 0 % 1008 hPa 0,0 l/m 0,1 km/h (0 Bft)
20.06.2010 23:00 22,9 C 10,8 C 12,1 C 93 % 0 % 1008 hPa 0,0 l/m 0,1 km/h (0 Bft)
20.06.2010 23:03 22,9 C 10,8 C 12,2 C 93 % 0 % 1008 hPa 0,0 l/m 4,7 km/h (1 Bft)
20.06.2010 23:06 22,9 C 10,8 C 12,1 C 93 % 0 % 1008 hPa 0,0 l/m 3,3 km/h (1 Bft)
20.06.2010 23:09 22,9 C 10,8 C 12,1 C 93 % 0 % 1008 hPa 0,0 l/m 2,8 km/h (1 Bft)
20.06.2010 23:12 22,9 C 10,8 C 12,2 C 93 % 0 % 1008 hPa 0,0 l/m 1,9 km/h (1 Bft)
20.06.2010 23:15 22,9 C 10,8 C 12,2 C 93 % 0 % 1008 hPa 0,0 l/m 1,9 km/h (1 Bft)
20.06.2010 23:18 22,9 C 10,8 C 12,2 C 93 % 0 % 1008 hPa 0,0 l/m 0,0 km/h (0 Bft)
20.06.2010 23:21 22,9 C 10,8 C 12,2 C 93 % 0 % 1008 hPa 0,0 l/m 0,0 km/h (0 Bft)
20.06.2010 23:24 22,9 C 10,8 C 12,2 C 93 % 0 % 1008 hPa 0,0 l/m 0,0 km/h (0 Bft)
20.06.2010 23:27 22,9 C 10,8 C 12,2 C 93 % 0 % 1008 hPa 0,0 l/m 0,0 km/h (0 Bft)
20.06.2010 23:30 22,9 C 10,8 C 12,2 C 93 % 0 % 1008 hPa 0,0 l/m 0,0 km/h (0 Bft)
20.06.2010 23:33 22,9 C 10,8 C 12,3 C 93 % 0 % 1009 hPa 0,0 l/m 0,0 km/h (0 Bft)
20.06.2010 23:36 22,9 C 10,8 C 12,4 C 93 % 0 % 1009 hPa 0,0 l/m 0,0 km/h (0 Bft)
20.06.2010 23:39 22,9 C 10,8 C 12,6 C 93 % 0 % 1009 hPa 0,0 l/m 0,0 km/h (0 Bft)
20.06.2010 23:42 22,9 C 10,9 C 12,6 C 93 % 0 % 1008 hPa 0,0 l/m 0,0 km/h (0 Bft)
20.06.2010 23:45 22,9 C 10,9 C 12,5 C 93 % 0 % 1009 hPa 0,0 l/m 0,0 km/h (0 Bft)
20.06.2010 23:48 22,9 C 10,9 C 12,5 C 93 % 0 % 1009 hPa 0,0 l/m 0,0 km/h (0 Bft)
20.06.2010 23:51 22,9 C 10,9 C 12,5 C 93 % 0 % 1009 hPa 0,0 l/m 0,0 km/h (0 Bft)
20.06.2010 23:54 22,9 C 10,9 C 12,4 C 93 % 0 % 1009 hPa 0,0 l/m 0,0 km/h (0 Bft)
20.06.2010 23:57 22,9 C 10,8 C 12,4 C 93 % 0 % 1009 hPa 0,0 l/m 0,0 km/h (0 Bft)
_ Min-Zeit 13:03 05:06 03:32 15:06 - 00:20 - 07:42
Minimum _ 20,1 C 9,5 C 11,1 C 80 % - 1001 hPa - 0,0 km/h (0 Bft)
_ Max-Zeit 15:00 16:18 16:15 03:50 00:02 23:33 00:11 05:21
Maximum _ 23,8 C 13,1 C 14,7 C 96 % 0 % 1009 hPa 0,3 l/m 19,5 km/h
N-NW (3 Bft)
Durchschnitt _ 22,9 C 11,0 C 12,6 C 92 % #0 min. 1004 hPa #7,5 l/m 5,2 km/h (1 Bft)